NOAA 16 DEB, 41080

Orbit data source: Space-Track

NOAA 16 DEB, 41080 is space debris in SSO originally from a launch on Thu, 21 Sep 2000 UTC launched from the Air Force Western Test Range (AFWTR). Debris objects in space refer to the collection of defunct objects orbiting the Earth. Examples of debris include non-operational satellites, rocket bodies, and fragments generated from explosions, collisions, or faulty payload assembly.

Loading next visibility...
Identifier
41080, 2000-055AP
Orbit
SSO
Country
Flag of USUS
Related business
Manufacturer
Unknown
Mission
Spacecraft
Bus & Motor
Unknown
Mass
Unknown
Launch date (UTC)
2000-09-21 (25 years ago)
Launch vehicle
Unknown
Launch site
Air Force Western Test Range (AFWTR)
Object type
Payload
Rocket body
Debris
Shape & HBR
Unknown shape, 0.1 m
Radar Cross Section
Small (<0.1 m²)

Expand to show TLE details & history
Last TLE update: 2 days ago

TLE from 2 days ago
0 NOAA 16 DEB
1 41080U 00055AP  25294.62013088  .00004073  00000-0  18462-2 0  9990
2 41080  98.5469 339.6573 0006606 210.2766 149.8032 14.22432808510955
Epoch: 2025-10-21T14:52Z
TLE epoch observation values (Epoch: 2025-10-21T14:52:59.308Z)
Latitude
0.00006°
Longitude
86.1047°
Altitude
824.17 km
Speed
7.439 km/s
True Right ascension
22h 38m 37s
True Declination
0° 00' 00"
Sunlit
Object was in full shadow at epoch
Visualization orbit readout
Latitude
Unknown
Longitude
Unknown
Altitude
Unknown
Speed
Unknown
Apparent Right ascension
Unknown
Apparent Declination
Unknown
Sunlit
N/A
Visualization observer readout
Local Sidereal Time
02:00:15
Azimuth
Unknown
Elevation
Unknown
Doppler factor
Unknown
Orbital elements
Apogee altitude
819.036 km
Perigee altitude
809.533 km
Semi-major axis
7,192.422 km
Eccentricity
0.00066
Inclination
98.5469°
RAAN
339.6573°
Arg. of periapsis
210.2766°
True anomaly
149.84125°
Mean anomaly
149.8032°
Eccentric anomaly
149.82223°
Mean motion
3.5582 °/min
Orbital period
101.17 mins
BSTAR
0.0018462
Loading maneuver chart data...
Computing Atmospheric mass density...

Documentation

Showing up to 5 results
|